Weather History for KFUL - March, 2013

Change the Weather History Date:

Saturday, March 2, 2013

  Actual Average Record
Temperature  
Mean Temperature 70 °F 59 °F  
Max Temperature 87 °F 69 °F 87 °F (2013)
Min Temperature 53 °F 50 °F 40 °F (2007)
Degree Days  
Heating Degree Days 0 6  
Month to date heating degree days 0 12  
Since 1 July heating degree days 671 934  
Cooling Degree Days 5 0  
Month to date cooling degree days 11 0  
Year to date cooling degree days 23 9  
Growing Degree Days 20 (Base 50)    
Moisture  
Dew Point 30 °F    
Average Humidity 29    
Maximum Humidity 47    
Minimum Humidity 10    
Precipitation  
Precipitation 0.00 in 0.16 in 0.33 in (2015)
Month to date precipitation 0.00 0.32  
Year to date precipitation 1.40 6.60  
Since 1 July precipitation 4.71  
Snow  
Snow 0.00 in - - ()
Month to date snowfall 0.0  
Year to date snowfall 0.0  
Since 1 July snowfall 0.0  
Snow Depth 0.00 in    
Sea Level Pressure  
Sea Level Pressure 30.14 in    
Wind  
Wind Speed 2 mph (South)    
Max Wind Speed 10 mph    
Max Gust Speed 24 mph    
Visibility 10 miles    
Events      
T = Trace of Precipitation, MM = Missing Value Source: NWS Daily Summary

Daily Weather History Graph

Daily Weather History Graph

Search for Another Location

Airport or City:

Trip Planner

Search our weather history database for the weather conditions in past years. The results will help you decide how hot, cold, wet, or windy it might be!

Date:

Astronomy

Mar. 02, 2013 Rise Set
Actual Time 6:18 AM PST 5:49 PM PST
Civil Twilight 5:53 AM PST 6:14 PM PST
Nautical Twilight 5:24 AM PST 6:43 PM PST
Astronomical Twilight 4:56 AM PST 7:12 PM PST
Moon 11:16 PM PST (3/2) 9:06 AM PST (3/2)
Length of Visible Light 12h 20m
Length of Day
11h 30m
Waning Gibbous, 73% of the Moon is Illuminated
Mar 2
Waning Gibbous
Mar 4
Last Quarter
Mar 11
New
Mar 19
First Quarter
Mar 27
Full

Hourly Weather History & Observations

Time (PST) Temp. Dew Point Humidity Pressure Visibility Wind Dir Wind Speed Gust Speed Precip Events Conditions
12:53 AM 57.9 °F 35.1 °F 42% 30.19 in 10.0 mi Calm Calm - N/A   Clear
1:53 AM 57.0 °F 36.0 °F 45% 30.18 in 10.0 mi Calm Calm - N/A   Clear
2:53 AM 59.0 °F 33.1 °F 38% 30.16 in 10.0 mi Calm Calm - N/A   Clear
3:53 AM 55.0 °F 35.1 °F 47% 30.16 in 10.0 mi Calm Calm - N/A   Clear
4:53 AM 55.0 °F 34.0 °F 45% 30.17 in 10.0 mi Calm Calm - N/A   Clear
5:53 AM 55.9 °F 33.1 °F 42% 30.17 in 10.0 mi Calm Calm - N/A   Clear
6:53 AM 55.0 °F 35.1 °F 47% 30.18 in 10.0 mi ENE 3.5 mph - N/A   Clear
7:53 AM 64.9 °F 34.0 °F 32% 30.19 in 10.0 mi Calm Calm - N/A   Clear
8:53 AM 73.0 °F 30.9 °F 21% 30.19 in 10.0 mi East 5.8 mph - N/A   Clear
9:53 AM 80.1 °F 28.9 °F 15% 30.18 in 10.0 mi Calm Calm - N/A   Clear
10:53 AM 84.0 °F 25.0 °F 12% 30.18 in 10.0 mi Calm Calm - N/A   Clear
11:53 AM 84.9 °F 24.1 °F 11% 30.16 in 10.0 mi South 5.8 mph - N/A   Clear
12:53 PM 86.0 °F 23.0 °F 10% 30.12 in 10.0 mi Variable 5.8 mph - N/A   Clear
1:53 PM 82.9 °F 25.0 °F 12% 30.10 in 10.0 mi SW 9.2 mph - N/A   Clear
2:53 PM 82.9 °F 27.0 °F 13% 30.09 in 10.0 mi SSW 8.1 mph - N/A   Clear
3:53 PM 82.9 °F 26.1 °F 13% 30.07 in 10.0 mi Variable 4.6 mph - N/A   Clear
4:53 PM 82.9 °F 27.0 °F 13% 30.06 in 10.0 mi West 4.6 mph - N/A   Clear
5:53 PM 78.1 °F 24.1 °F 14% 30.07 in 10.0 mi Variable 3.5 mph - N/A   Clear
6:53 PM 73.0 °F 25.0 °F 17% 30.09 in 10.0 mi Calm Calm - N/A   Clear
7:53 PM 69.1 °F 28.0 °F 22% 30.09 in 10.0 mi Calm Calm - N/A   Clear
8:53 PM 64.9 °F 33.1 °F 31% 30.11 in 10.0 mi Calm Calm - N/A   Clear
9:53 PM 63.0 °F 34.0 °F 34% 30.12 in 10.0 mi Calm Calm - N/A   Clear
10:53 PM 62.1 °F 36.0 °F 38% 30.11 in 10.0 mi Calm Calm - N/A   Clear
11:53 PM 60.1 °F 36.0 °F 41% 30.10 in 10.0 mi Calm Calm - N/A   Clear